�N����,����,�~����,�C��,���x,�C��,����,���ϕ���,�ő�u�ԕ���,�ő厞����,���˗�,�I�_���x,�n�����x,�ő啗���N��,DTYPE
"18/02/11","00:10",0.0,5.2,98.4,1006.0,326.4,1.3,1.8,324.1,0.00,5.0,5.4,"00:04:16",1
"18/02/11","00:20",0.0,5.2,98.5,1005.5,320.9,1.6,2.1,325.0,0.00,5.0,5.3,"00:13:44",1
"18/02/11","00:30",0.0,5.5,98.6,1005.7,320.3,2.3,3.2,340.6,0.00,5.3,5.2,"00:22:00",1
"18/02/11","00:40",0.0,5.6,98.3,1005.7,314.6,2.2,3.9,336.9,0.00,5.4,5.3,"00:39:20",1
"18/02/11","00:50",0.0,5.7,98.1,1005.5,322.9,2.3,3.9,329.5,0.00,5.5,5.6,"00:40:56",1
"18/02/11","01:00",0.0,5.7,97.8,1005.5,327.7,2.6,4.4,337.5,0.00,5.4,5.2,"00:55:46",1
"18/02/11","01:10",0.0,5.6,98.3,1005.7,314.7,2.0,3.1,337.1,0.00,5.4,5.3,"01:06:08",1
"18/02/11","01:20",0.0,5.7,97.4,1005.7,310.0,1.6,2.2,330.3,0.00,5.4,5.1,"01:10:02",1
"18/02/11","01:30",0.0,5.5,97.9,1005.7,323.7,1.6,2.5,324.8,0.00,5.2,5.3,"01:20:40",1
"18/02/11","01:40",0.0,5.4,98.3,1006.0,310.9,1.5,3.1,332.2,0.00,5.2,5.2,"01:39:52",1
"18/02/11","01:50",0.0,5.6,97.5,1005.5,295.7,2.1,3.7,338.7,0.00,5.3,5.4,"01:42:16",1
"18/02/11","02:00",0.0,5.6,97.8,1006.2,302.2,2.0,3.6,312.2,0.00,5.3,5.4,"01:50:32",1
"18/02/11","02:10",0.0,5.6,97.5,1005.7,319.3,2.2,3.7,330.0,0.00,5.3,5.4,"02:02:24",1
"18/02/11","02:20",0.0,5.6,97.4,1005.5,317.6,2.2,3.5,332.2,0.00,5.3,5.4,"02:17:54",1
"18/02/11","02:30",0.0,5.6,97.1,1005.7,309.0,2.0,3.2,330.3,0.00,5.2,5.2,"02:26:56",1
"18/02/11","02:40",0.0,5.6,96.6,1006.0,298.1,2.0,4.5,338.4,0.00,5.1,5.4,"02:31:04",1
"18/02/11","02:50",0.0,5.5,96.5,1006.2,319.0,2.1,3.5,328.1,0.00,5.0,5.2,"02:43:52",1
"18/02/11","03:00",0.0,5.5,96.3,1005.5,305.0,2.0,3.9,322.3,0.00,5.0,5.5,"02:56:48",1
"18/02/11","03:10",0.0,5.5,96.0,1005.2,312.7,2.5,3.9,331.7,0.00,5.0,5.4,"03:04:32",1
"18/02/11","03:20",0.0,5.5,95.8,1005.5,290.3,2.2,4.1,258.3,0.00,4.9,5.2,"03:14:08",1
"18/02/11","03:30",0.0,5.6,95.4,1005.7,293.0,2.0,3.4,285.4,0.00,5.0,5.2,"03:22:48",1
"18/02/11","03:40",0.0,5.7,94.6,1006.0,312.4,2.8,5.0,334.0,0.00,4.9,5.2,"03:31:12",1
"18/02/11","03:50",0.0,5.7,94.1,1005.5,311.3,2.6,4.1,292.6,0.00,4.9,5.3,"03:45:04",1
"18/02/11","04:00",0.0,5.5,93.6,1005.2,325.5,3.0,4.2,337.9,0.00,4.6,5.5,"03:51:22",1
"18/02/11","04:10",0.0,5.4,94.1,1005.5,325.1,2.8,5.0,340.1,0.00,4.6,5.2,"04:07:22",1
"18/02/11","04:20",0.0,5.4,94.0,1005.7,329.1,3.7,5.9,336.5,0.00,4.6,5.0,"04:18:40",1
"18/02/11","04:30",0.0,5.4,93.8,1006.0,315.0,3.2,6.0,314.8,0.00,4.5,5.2,"04:25:00",1
"18/02/11","04:40",0.0,5.3,93.6,1006.0,309.6,3.1,5.2,329.1,0.00,4.4,5.1,"04:33:12",1
"18/02/11","04:50",0.0,5.2,93.5,1005.7,302.9,2.7,4.7,326.5,0.00,4.3,5.2,"04:48:40",1
"18/02/11","05:00",0.0,5.1,93.5,1006.0,300.5,2.6,3.9,327.6,0.00,4.2,5.1,"04:52:08",1
"18/02/11","05:10",0.0,5.1,93.7,1005.7,312.6,3.1,4.7,327.2,0.00,4.2,5.0,"05:04:50",1
"18/02/11","05:20",0.0,5.0,93.5,1005.5,303.8,2.3,3.6,321.4,0.00,4.1,5.2,"05:14:32",1
"18/02/11","05:30",0.0,4.9,93.5,1005.7,305.9,2.8,4.3,311.3,0.00,4.0,5.0,"05:22:00",1
"18/02/11","05:40",0.0,4.9,93.3,1005.2,308.3,3.0,4.8,326.5,0.00,4.0,5.1,"05:37:04",1
"18/02/11","05:50",0.0,4.9,93.2,1005.5,290.3,2.2,3.2,316.7,0.00,3.9,5.0,"05:44:32",1
"18/02/11","06:00",0.0,4.9,93.0,1005.5,292.3,2.5,4.1,280.6,0.00,3.9,5.0,"05:54:16",1
"18/02/11","06:10",0.0,4.8,92.7,1005.2,292.3,2.7,4.1,279.0,0.00,3.8,5.0,"06:08:48",1
"18/02/11","06:20",0.0,4.9,91.9,1005.5,289.0,3.0,4.4,321.1,0.00,3.7,5.0,"06:15:28",1
"18/02/11","06:30",0.0,4.9,90.2,1005.5,286.6,3.1,4.9,302.8,0.00,3.5,5.0,"06:26:48",1
"18/02/11","06:40",0.0,4.9,88.8,1006.0,298.1,3.2,5.4,308.7,0.00,3.3,5.0,"06:34:16",1
"18/02/11","06:50",0.0,4.8,87.7,1006.2,288.9,3.1,4.5,311.1,0.00,3.0,5.1,"06:48:18",1
"18/02/11","07:00",0.0,4.7,87.8,1006.0,285.1,2.8,4.5,316.2,0.00,2.9,4.7,"06:54:40",1
"18/02/11","07:10",0.0,4.6,87.7,1006.0,281.2,2.2,3.5,266.4,0.00,2.8,4.7,"07:02:18",1
"18/02/11","07:20",0.0,4.6,88.6,1005.7,284.4,2.2,3.6,307.4,0.00,2.9,4.8,"07:14:32",1
"18/02/11","07:30",0.0,4.6,88.5,1006.2,276.6,2.0,3.7,278.9,0.00,2.9,4.8,"07:24:34",1
"18/02/11","07:40",0.0,4.7,87.6,1006.2,282.8,2.5,3.6,282.6,0.01,2.9,4.5,"07:32:56",1
"18/02/11","07:50",0.0,4.9,86.8,1006.4,281.1,2.2,4.2,303.1,0.02,2.9,4.7,"07:47:12",1
"18/02/11","08:00",0.0,5.0,85.7,1006.7,281.6,2.2,4.3,306.6,0.03,2.8,4.8,"07:51:12",1
"18/02/11","08:10",0.0,5.3,84.1,1006.9,272.0,2.2,4.0,266.0,0.05,2.9,4.7,"08:02:00",1
"18/02/11","08:20",0.0,5.6,82.3,1006.9,289.1,2.7,5.2,319.1,0.06,2.9,4.7,"08:16:32",1
"18/02/11","08:30",0.0,6.0,80.3,1007.6,280.5,3.1,5.5,306.6,0.10,2.9,4.7,"08:28:48",1
"18/02/11","08:40",0.0,6.3,78.2,1007.6,271.6,3.1,5.8,254.6,0.08,2.8,4.8,"08:37:20",1
"18/02/11","08:50",0.0,5.9,79.1,1007.8,285.0,3.0,5.5,309.5,0.04,2.6,4.8,"08:45:36",1
"18/02/11","09:00",0.0,5.6,80.6,1008.1,282.8,3.2,6.0,314.7,0.04,2.6,4.9,"08:55:36",1
"18/02/11","09:10",0.0,5.2,82.1,1007.6,298.8,3.4,6.8,329.6,0.01,2.4,5.0,"09:04:48",1
"18/02/11","09:20",0.0,4.8,83.9,1007.1,297.1,3.4,7.1,341.3,0.01,2.4,4.9,"09:10:16",1
"18/02/11","09:30",0.0,4.9,84.7,1007.6,284.5,2.7,5.1,256.1,0.05,2.6,5.0,"09:20:16",1
"18/02/11","09:40",0.0,5.3,84.0,1007.6,288.2,3.5,6.6,323.9,0.19,2.9,5.2,"09:39:04",1
"18/02/11","09:50",0.0,5.7,84.2,1008.1,299.8,3.5,7.1,335.5,0.19,3.3,5.2,"09:43:44",1
"18/02/11","10:00",0.0,6.4,79.9,1008.6,292.7,3.5,6.4,330.7,0.38,3.2,5.4,"09:59:48",1
"18/02/11","10:10",0.0,5.7,79.7,1008.3,282.6,3.5,6.6,322.8,0.19,2.5,5.2,"10:09:46",1
"18/02/11","10:20",0.0,5.5,81.2,1008.3,295.9,3.4,7.0,320.5,0.15,2.6,5.5,"10:10:24",1
"18/02/11","10:30",0.0,5.7,80.0,1008.3,282.1,2.7,5.9,299.6,0.17,2.6,5.6,"10:27:28",1
"18/02/11","10:40",0.0,5.6,77.2,1008.3,306.9,3.2,5.8,330.7,0.12,2.0,5.6,"10:39:04",1
"18/02/11","10:50",0.0,5.5,78.8,1008.6,300.0,3.1,6.0,316.1,0.12,2.2,5.7,"10:44:40",1
"18/02/11","11:00",0.0,5.1,79.1,1008.3,307.1,3.5,5.2,331.7,0.09,1.8,5.8,"10:54:40",1
"18/02/11","11:10",0.0,4.6,86.4,1008.3,276.2,2.2,3.2,303.0,0.17,2.6,5.7,"11:06:24",1
"18/02/11","11:20",0.0,5.1,83.9,1008.1,230.8,1.3,2.8,232.3,0.20,2.6,5.9,"11:10:58",1
"18/02/11","11:30",0.0,5.9,78.2,1007.8,256.5,1.6,4.1,255.4,0.26,2.4,6.0,"11:27:04",1
"18/02/11","11:40",0.0,5.7,73.8,1008.1,321.3,2.7,5.0,309.5,0.18,1.4,6.2,"11:36:48",1
"18/02/11","11:50",0.0,6.1,72.1,1008.1,333.0,3.1,6.4,342.6,0.22,1.5,6.0,"11:42:00",1
"18/02/11","12:00",0.0,5.3,72.5,1008.3,331.8,4.6,10.8,330.3,0.07,0.8,6.2,"11:59:14",1
"18/02/11","12:10",0.0,4.4,76.0,1008.1,326.6,4.7,8.1,339.2,0.04,0.6,6.3,"12:07:22",1
"18/02/11","12:20",0.0,4.3,77.4,1007.6,333.9,3.6,6.7,307.9,0.05,0.7,6.2,"12:14:38",1
"18/02/11","12:30",0.0,4.1,75.9,1007.6,319.3,4.2,7.1,315.0,0.08,0.3,6.2,"12:22:38",1
"18/02/11","12:40",0.0,4.9,71.0,1007.4,325.3,5.2,10.0,351.8,0.12,0.1,6.1,"12:31:36",1
"18/02/11","12:50",0.0,4.6,70.6,1007.4,332.3,6.0,8.7,345.3,0.14,-0.2,6.0,"12:41:56",1
"18/02/11","13:00",0.0,5.0,67.3,1007.4,331.2,5.2,8.2,334.3,0.12,-0.5,6.1,"12:52:12",1
"18/02/11","13:10",0.0,5.1,65.9,1006.9,315.7,5.0,8.5,329.8,0.10,-0.7,5.9,"13:02:58",1
"18/02/11","13:20",0.0,5.1,65.8,1006.9,306.3,3.9,6.4,310.9,0.09,-0.7,6.0,"13:10:26",1
"18/02/11","13:30",0.0,5.6,65.3,1006.9,306.4,2.8,5.0,321.5,0.11,-0.4,5.9,"13:23:04",1
"18/02/11","13:40",0.0,5.4,61.9,1006.7,330.6,4.1,7.3,328.9,0.09,-1.3,5.9,"13:36:16",1
"18/02/11","13:50",0.0,5.2,59.2,1006.4,338.9,4.2,7.5,345.9,0.07,-2.1,6.1,"13:49:02",1
"18/02/11","14:00",0.0,5.2,57.3,1006.9,336.8,4.2,8.0,326.8,0.07,-2.5,5.7,"13:54:30",1
"18/02/11","14:10",0.0,5.1,55.4,1006.9,329.7,5.2,9.8,343.3,0.07,-3.1,5.8,"14:09:48",1
"18/02/11","14:20",0.0,4.7,56.8,1006.4,332.1,5.0,8.7,333.8,0.08,-3.1,5.8,"14:13:22",1
"18/02/11","14:30",0.0,5.4,55.4,1006.9,314.8,4.1,11.8,311.4,0.18,-2.8,5.9,"14:20:42",1
"18/02/11","14:40",0.0,4.9,53.0,1007.1,326.1,6.0,10.6,302.8,0.12,-3.8,5.7,"14:33:36",1
"18/02/11","14:50",0.0,5.0,52.6,1007.1,318.7,6.2,14.4,328.8,0.12,-3.8,6.0,"14:42:14",1
"18/02/11","15:00",0.0,5.1,53.6,1007.6,327.6,5.7,9.7,309.7,0.13,-3.5,5.8,"14:51:52",1
"18/02/11","15:10",0.0,4.9,52.6,1007.4,330.3,4.7,10.1,335.1,0.06,-3.9,5.8,"15:00:16",1
"18/02/11","15:20",0.0,5.2,54.0,1007.4,328.6,4.2,7.8,354.8,0.09,-3.3,6.1,"15:13:24",1
"18/02/11","15:30",0.0,5.5,53.0,1007.4,308.5,3.7,7.1,322.6,0.12,-3.3,6.0,"15:21:28",1
"18/02/11","15:40",0.0,5.3,51.4,1007.4,302.2,3.4,7.4,326.6,0.10,-3.9,5.9,"15:35:20",1
"18/02/11","15:50",0.0,5.5,49.5,1007.4,312.1,3.4,5.7,323.4,0.09,-4.2,5.9,"15:48:08",1
"18/02/11","16:00",0.0,5.3,49.4,1007.4,301.1,2.7,6.3,326.4,0.05,-4.4,5.8,"15:56:10",1
"18/02/11","16:10",0.0,4.9,47.5,1007.4,284.5,3.6,7.4,309.4,0.04,-5.3,5.7,"16:03:30",1
"18/02/11","16:20",0.0,5.1,49.1,1006.9,281.1,2.8,4.5,316.9,0.06,-4.7,6.0,"16:15:16",1
"18/02/11","16:30",0.0,5.0,48.9,1006.9,323.8,3.5,7.0,321.3,0.05,-4.8,5.9,"16:27:48",1
"18/02/11","16:40",0.0,4.6,49.6,1007.1,314.3,4.5,13.2,329.7,0.03,-5.0,5.8,"16:34:26",1
"18/02/11","16:50",0.0,4.5,51.0,1007.6,312.6,3.0,4.8,348.7,0.03,-4.7,5.9,"16:45:14",1
"18/02/11","17:00",0.0,4.1,52.3,1007.4,333.5,3.4,6.0,324.3,0.02,-4.8,5.6,"16:58:48",1
"18/02/11","17:10",0.0,3.7,52.2,1007.1,317.6,2.6,5.2,332.7,0.00,-5.1,5.7,"17:05:52",1
"18/02/11","17:20",0.0,3.5,51.4,1007.1,321.0,3.7,7.9,336.1,0.00,-5.5,5.7,"17:19:42",1
"18/02/11","17:30",0.0,3.4,51.8,1007.1,331.0,4.2,7.0,334.6,0.00,-5.5,5.4,"17:25:30",1
"18/02/11","17:40",0.0,3.1,53.0,1007.1,321.7,4.1,6.5,343.8,0.00,-5.5,5.4,"17:34:58",1
"18/02/11","17:50",0.0,2.9,52.7,1007.6,322.1,3.9,7.4,350.5,0.00,-5.8,5.4,"17:49:08",1
"18/02/11","18:00",0.0,2.6,54.3,1007.6,320.9,3.4,5.9,343.5,0.00,-5.7,5.1,"17:50:08",1
"18/02/11","18:10",0.0,2.5,53.8,1008.1,310.1,3.4,6.3,294.2,0.00,-5.9,5.3,"18:02:20",1
"18/02/11","18:20",0.0,2.3,53.2,1007.8,305.7,3.7,6.4,333.6,0.00,-6.2,5.0,"18:19:10",1
"18/02/11","18:30",0.0,2.3,52.4,1007.8,321.8,4.1,6.3,333.7,0.00,-6.4,5.0,"18:20:56",1
"18/02/11","18:40",0.0,2.0,54.1,1008.3,302.2,3.5,6.2,329.5,0.00,-6.3,4.8,"18:30:54",1
"18/02/11","18:50",0.0,1.8,54.9,1008.3,312.4,3.4,5.1,305.8,0.00,-6.3,4.8,"18:46:40",1
"18/02/11","19:00",0.0,1.6,56.3,1008.6,303.6,2.6,4.7,319.5,0.00,-6.1,4.6,"18:53:48",1
"18/02/11","19:10",0.0,1.6,55.6,1008.8,295.8,3.1,5.4,332.3,0.00,-6.3,4.5,"19:06:42",1
"18/02/11","19:20",0.0,1.5,55.6,1008.6,297.8,3.0,4.8,336.7,0.00,-6.4,4.5,"19:19:26",1
"18/02/11","19:30",0.0,1.4,54.7,1008.6,306.7,3.7,6.8,324.6,0.00,-6.7,4.4,"19:21:24",1
"18/02/11","19:40",0.0,1.3,55.2,1008.8,300.5,2.7,4.0,322.8,0.00,-6.7,4.3,"19:32:58",1
"18/02/11","19:50",0.0,1.2,55.0,1009.0,294.3,3.2,6.4,318.8,0.00,-6.8,4.2,"19:41:50",1
"18/02/11","20:00",0.0,1.1,55.7,1008.8,299.9,3.1,5.6,323.2,0.00,-6.7,4.2,"19:51:42",1
"18/02/11","20:10",0.0,1.0,56.4,1009.0,301.1,3.4,6.4,323.3,0.00,-6.7,4.1,"20:00:44",1
"18/02/11","20:20",0.0,1.0,56.1,1008.8,308.0,3.4,6.0,341.2,0.00,-6.7,4.0,"20:12:46",1
"18/02/11","20:30",0.0,0.9,55.8,1008.8,299.8,3.4,5.4,330.9,0.00,-6.9,3.7,"20:28:30",1
"18/02/11","20:40",0.0,0.9,55.9,1009.3,304.4,3.2,5.5,326.7,0.00,-6.9,4.0,"20:33:46",1
"18/02/11","20:50",0.0,0.9,55.2,1009.3,303.7,3.6,5.6,331.5,0.00,-7.0,3.9,"20:40:58",1
"18/02/11","21:00",0.0,0.6,57.4,1009.5,292.1,2.7,5.1,296.9,0.00,-6.8,3.8,"20:53:44",1
"18/02/11","21:10",0.0,0.3,58.5,1009.3,299.2,2.3,3.7,335.2,0.00,-6.8,4.0,"21:01:30",1
"18/02/11","21:20",0.0,0.4,58.7,1009.3,285.4,2.6,6.3,335.8,0.00,-6.7,3.8,"21:16:24",1
"18/02/11","21:30",0.0,0.3,58.5,1009.0,285.0,2.5,4.3,317.7,0.00,-6.8,3.7,"21:26:34",1
"18/02/11","21:40",0.0,0.1,59.9,1009.5,276.2,2.1,4.7,297.9,0.00,-6.7,3.7,"21:30:32",1
"18/02/11","21:50",0.0,0.0,60.9,1009.3,276.3,2.0,3.3,273.8,0.00,-6.6,3.5,"21:41:20",1
"18/02/11","22:00",0.0,-0.1,61.8,1009.5,271.3,1.7,2.5,254.3,0.00,-6.5,3.6,"21:54:00",1
"18/02/11","22:10",0.0,-0.3,62.8,1009.3,286.9,1.6,2.4,307.2,0.00,-6.5,3.5,"22:02:24",1
"18/02/11","22:20",0.0,-0.3,64.4,1009.3,285.6,1.5,2.1,299.5,0.00,-6.2,3.6,"22:17:20",1
"18/02/11","22:30",0.0,-0.4,65.1,1009.3,292.3,1.6,2.8,339.9,0.00,-6.1,3.7,"22:24:56",1
"18/02/11","22:40",0.0,-0.4,67.1,1008.8,292.4,1.7,3.1,312.4,0.00,-5.7,3.4,"22:39:20",1
"18/02/11","22:50",0.0,-0.4,67.9,1008.8,284.3,1.7,3.6,316.3,0.00,-5.6,3.5,"22:45:28",1
"18/02/11","23:00",0.0,-0.4,68.3,1009.0,284.6,2.0,3.4,323.6,0.00,-5.5,3.4,"22:57:54",1
"18/02/11","23:10",0.0,-0.6,69.3,1009.0,296.5,1.5,2.7,333.3,0.00,-5.5,3.3,"23:02:08",1
"18/02/11","23:20",0.0,-0.6,70.2,1009.0,290.3,1.6,2.9,325.7,0.00,-5.3,3.1,"23:10:40",1
"18/02/11","23:30",0.0,-0.7,70.2,1008.8,277.6,1.5,2.6,278.4,0.00,-5.4,3.3,"23:22:32",1
"18/02/11","23:40",0.0,-0.7,70.2,1009.0,285.4,1.6,2.7,265.7,0.00,-5.4,3.2,"23:33:20",1
"18/02/11","23:50",0.0,-1.0,71.0,1008.8,308.8,1.3,2.2,329.3,0.00,-5.5,3.1,"23:40:56",1
"18/02/11","24:00",0.0,-1.2,72.4,1008.6,295.0,1.3,2.1,315.7,0.00,-5.5,3.1,"23:57:52",1
